[[{"header":{"parameterUnit":"m.s-1","parameterCategory":1,"la1":30.2991,"la2":30.254,"lo1":-89.0895,"lo2":-89.0444,"dy":0.0017,"dx":0.0017,"nx":28,"ny":28,"refTime":"2024-03-03T09:00:00:Z","depth":0,"parameterNumber":2,"parameterNumberName":"U-component_of_WINDS"},"data":[0,0,0,0,0,0,0,0,0,0,0,0,0,0,0,0,0,0,0,0,0,0,0,0,0,0,0,0,0,0,0,0,0,0,0,0,0,0,0,0,0,0,0,0,0,0,0,0,0,0,0,0,0,0,0,0,0,0,-1.0524,-1.0523,0,-1.0452,-1.0451,-1.0451,-1.0395,-1.0394,-1.0394,-1.0393,-1.0318,-1.0317,-1.0315,0,0,0,0,0,0,0,0,0,0,0,0,0,-1.0611,-1.061,-1.0524,-1.0523,-1.0522,-1.0452,-1.0451,-1.045,-1.0395,-1.0394,-1.0394,-1.0393,-1.0319,-1.0317,-1.0315,0,0,0,0,0,0,0,0,0,0,0,0,0,-1.056,-1.061,-1.0524,-1.0486,-1.0482,-1.0452,-1.0451,-1.045,-1.0395,-1.0394,-1.0394,-1.0393,-1.0319,-1.0317,-1.0315,-1.0317,0,0,-1.0308,-1.0307,0,0,0,0,0,0,0,0,-1.0563,-1.0557,-1.0493,-1.0489,-1.0484,-1.0432,-1.0454,-1.0405,-1.0395,-1.0428,-1.0393,-1.0392,-1.0356,-1.0351,-1.0339,-1.0313,-1.031,-1.0308,-1.0306,-1.0305,-1.0305,0,0,0,0,0,0,0,-1.0567,-1.056,-1.0495,-1.0492,-1.0487,-1.0472,-1.0464,-1.0445,-1.0398,-1.0425,-1.0421,-1.0413,-1.0354,-1.0342,-1.0337,-1.0309,-1.0308,-1.0306,-1.0304,-1.0303,-1.028,-1.028,0,0,0,0,0,0,-1.0576,-1.0563,-1.0498,-1.0493,-1.0522,-1.0471,-1.0462,-1.0449,-1.0398,-1.0389,-1.0414,-1.0411,-1.0346,-1.034,-1.0334,-1.0332,-1.0305,-1.0303,-1.0302,-1.0279,-1.028,-1.028,0,0,0,0,0,0,-1.0578,-1.0571,-1.0501,-1.0527,-1.0517,-1.0471,-1.0457,-1.0448,-1.0436,-1.0389,-1.038,-1.041,-1.0345,-1.0337,-1.0321,-1.0329,-1.0302,-1.03,-1.0278,-1.0279,-1.028,-1.0329,0,0,0,0,0,0,-1.0581,-1.0572,-1.0573,-1.0527,-1.0516,-1.049,-1.0457,-1.0447,-1.0432,-1.0428,-1.0383,-1.0375,-1.0344,-1.0325,-1.0319,-1.0325,-1.0298,-1.0277,-1.0278,-1.028,-1.0327,-1.0332,-1.0336,0,0,0,0,0,-1.0584,-1.0589,-1.0573,-1.0565,-1.0516,-1.049,-1.0483,-1.0448,-1.0433,-1.0433,-1.0403,-1.0377,-1.0329,-1.0324,-1.0317,-1.0322,-1.0276,-1.0278,-1.028,-1.0324,-1.0331,-1.0336,0,0,0,0,0,0,-1.0636,-1.0582,-1.0564,-1.0554,-1.0527,-1.0481,-1.048,-1.0456,-1.0432,-1.0428,-1.0384,-1.0375,-1.0363,-1.0341,-1.0336,-1.0321,-1.0299,-1.03,-1.0336,-1.0341,-1.0346,-1.0351,-1.0296,0,0,0,0,0,-1.0646,-1.0631,-1.0585,-1.058,-1.0568,-1.0526,-1.0514,-1.0489,-1.0459,-1.0447,-1.0416,-1.0387,-1.0366,-1.0352,-1.033,-1.0323,-1.0312,-1.0324,-1.0329,-1.0333,-1.0333,-1.0327,-1.0332,-1.0286,-1.0286,-1.0286,0,0,-1.0667,-1.0636,-1.0629,-1.059,-1.0566,-1.055,-1.0517,-1.0502,-1.0489,-1.0444,-1.0427,-1.0404,-1.0369,-1.0357,-1.035,-1.0338,-1.0344,-1.0335,-1.0338,-1.0337,-1.0329,-1.0334,-1.0338,-1.0287,-1.0287,-1.0287,0,0,-1.0697,-1.0673,-1.0666,-1.0643,-1.0607,-1.058,-1.0578,-1.0536,-1.0518,-1.05,-1.0466,-1.0451,-1.0415,-1.0391,-1.0375,-1.0396,-1.037,-1.039,-1.0415,-1.0409,-1.0413,-1.0416,-1.0423,-1.0426,-1.0391,-1.0391,-1.0391,0,-1.0728,-1.0703,-1.0666,-1.0652,-1.0636,-1.0595,-1.0588,-1.0567,-1.0526,-1.0516,-1.0503,-1.0457,-1.043,-1.0413,-1.0418,-1.0406,-1.0402,-1.0394,-1.0416,-1.0418,-1.042,-1.0427,-1.0429,-1.0393,-1.0393,-1.0393,-1.0393,0,-1.0742,-1.0725,-1.0724,-1.0686,-1.067,-1.066,-1.062,-1.0608,-1.0584,-1.0558,-1.054,-1.0507,-1.0477,-1.0471,-1.0448,-1.045,-1.0444,-1.0424,-1.0401,-1.0428,-1.0433,-1.0435,-1.0397,-1.0396,-1.0395,-1.0395,0,0,-1.0802,-1.0743,-1.0744,-1.0726,-1.0683,-1.067,-1.0657,-1.0629,-1.0619,-1.0592,-1.058,-1.0551,-1.0532,-1.0514,-1.0487,-1.0483,-1.0501,-1.0463,-1.0462,-1.0471,-1.0501,-1.0515,-1.0519,-1.0484,-1.0485,-1.0485,-1.0503,0,-1.0825,-1.0801,-1.0767,-1.0755,-1.0739,-1.07,-1.0689,-1.0662,-1.0637,-1.0619,-1.0591,-1.0571,-1.0548,-1.0536,-1.053,-1.05,-1.0506,-1.0499,-1.0472,-1.0472,-1.0482,-1.0521,-1.0537,-1.0556,-1.0505,-1.0505,-1.0506,0,-1.0848,-1.0824,-1.081,-1.0769,-1.0761,-1.0752,-1.0723,-1.0706,-1.0674,-1.0656,-1.0636,-1.0607,-1.0592,-1.0572,-1.055,-1.0545,-1.0532,-1.0516,-1.0516,-1.0511,-1.049,-1.0517,-1.0561,-1.0564,-1.0509,-1.0508,-1.0508,0,-1.0893,-1.0856,-1.0843,-1.0829,-1.0781,-1.0775,-1.0755,-1.0722,-1.0707,-1.0682,-1.0671,-1.0644,-1.0629,-1.0609,-1.0573,-1.0562,-1.0555,-1.0532,-1.0539,-1.054,-1.0538,-1.0539,-1.058,-1.0532,-1.0531,-1.0531,-1.0531,0,-1.0921,-1.0914,-1.0862,-1.0854,-1.0845,-1.0806,-1.0797,-1.0773,-1.0745,-1.0731,-1.0695,-1.0683,-1.0637,-1.0619,-1.0592,-1.0577,-1.0571,-1.0555,-1.0548,-1.0558,-1.056,-1.0548,-1.0546,-1.0532,-1.0532,-1.0532,-1.0532,0,-1.0969,-1.0934,-1.0917,-1.0873,-1.0862,-1.0857,-1.0819,-1.0809,-1.0782,-1.0765,-1.0759,-1.0716,-1.0693,-1.0656,-1.0622,-1.0604,-1.0594,-1.0582,-1.0605,-1.06,-1.0609,-1.0608,-1.0643,-1.0646,-1.0597,-1.0598,-1.0598,0,-1.0989,-1.0983,-1.0939,-1.0927,-1.0908,-1.089,-1.0874,-1.0835,-1.082,-1.0784,-1.0778,-1.0753,-1.073,-1.0695,-1.0661,-1.0634,-1.0621,-1.0635,-1.0617,-1.0627,-1.062,-1.0621,-1.062,-1.0639,-1.064,-1.0641,-1.0641,0,-1.1029,-1.1012,-1.0991,-1.0965,-1.0947,-1.0924,-1.0899,-1.0892,-1.0847,-1.0832,-1.0809,-1.0791,-1.0757,-1.0731,-1.07,-1.0679,-1.0652,-1.0647,-1.0647,-1.0657,-1.067,-1.0663,-1.0616,-1.0646,-1.0646,-1.0646,-1.0645,-1.0645,-1.1063,-1.1055,-1.1023,-1.1001,-1.0978,-1.0956,-1.0944,-1.0916,-1.0896,-1.0865,-1.0843,-1.0821,-1.0789,-1.0744,-1.0724,-1.0706,-1.0694,-1.0694,-1.0694,-1.0694,-1.0698,-1.0674,-1.07,-1.07,-1.0699,-1.0699,-1.0699,0,-1.11,-1.1077,-1.1057,-1.1024,-1.1006,-1.0984,-1.0955,-1.0942,-1.0923,-1.0895,-1.0874,-1.0847,-1.0822,-1.0786,-1.0758,-1.075,-1.0738,-1.0744,-1.0744,-1.0739,-1.071,-1.0713,-1.0755,-1.0755,-1.0755,-1.0755,-1.0755,-1.0755,-1.1117,-1.1103,-1.1082,-1.1056,-1.1033,-1.1011,-1.0996,-1.0975,-1.0953,-1.0924,-1.0904,-1.0881,-1.085,-1.0819,-1.0796,-1.0786,-1.0777,-1.0787,-1.0774,-1.0747,-1.0742,-1.0737,-1.0739,-1.0786,-1.0786,-1.0804,-1.0804,-1.0804]},{"header":{"parameterUnit":"m.s-1","parameterCategory":1,"la1":30.2991,"la2":30.254,"lo1":-89.0895,"lo2":-89.0444,"dy":0.0017,"dx":0.0017,"nx":28,"ny":28,"refTime":"2024-03-03T09:00:00:Z","depth":0,"parameterNumber":3,"parameterNumberName":"V-component_of_WINDS"},"data":[0,0,0,0,0,0,0,0,0,0,0,0,0,0,0,0,0,0,0,0,0,0,0,0,0,0,0,0,0,0,0,0,0,0,0,0,0,0,0,0,0,0,0,0,0,0,0,0,0,0,0,0,0,0,0,0,0,0,0.9504,0.9504,0,0.949,0.9489,0.9489,0.9425,0.9424,0.9422,0.9421,0.9407,0.9408,0.9409,0,0,0,0,0,0,0,0,0,0,0,0,0,0.9477,0.9478,0.9504,0.9504,0.9504,0.949,0.9489,0.9489,0.9426,0.9424,0.9422,0.942,0.9407,0.9408,0.9409,0,0,0,0,0,0,0,0,0,0,0,0,0,0.9479,0.9478,0.9504,0.947,0.9467,0.949,0.9489,0.9489,0.9426,0.9424,0.9421,0.9419,0.9406,0.9408,0.9409,0.9464,0,0,0.9414,0.9415,0,0,0,0,0,0,0,0,0.9479,0.948,0.9475,0.9473,0.9469,0.9457,0.9475,0.9481,0.9427,0.9442,0.9421,0.9418,0.9425,0.9425,0.9427,0.9463,0.9462,0.9414,0.9415,0.9416,0.9416,0,0,0,0,0,0,0,0.9479,0.948,0.9498,0.9475,0.9472,0.9456,0.9454,0.9476,0.9446,0.944,0.9435,0.9435,0.9423,0.9426,0.9427,0.9462,0.9414,0.9415,0.9416,0.9417,0.9542,0.9544,0,0,0,0,0,0,0.9483,0.948,0.9499,0.9498,0.9468,0.9458,0.9456,0.9463,0.9446,0.9441,0.9436,0.9432,0.9425,0.9425,0.9426,0.9489,0.9416,0.9417,0.9418,0.9539,0.9542,0.9545,0,0,0,0,0,0,0.9483,0.9485,0.9499,0.9488,0.9488,0.9461,0.947,0.9464,0.9467,0.9443,0.9438,0.9445,0.9423,0.9424,0.9455,0.9487,0.9418,0.9419,0.9537,0.954,0.9544,0.9614,0,0,0,0,0,0,0.9482,0.9486,0.9506,0.9489,0.9489,0.9528,0.9472,0.9465,0.9469,0.9463,0.9449,0.9445,0.9421,0.9453,0.9456,0.9488,0.942,0.9533,0.9538,0.9542,0.9609,0.962,0.9629,0,0,0,0,0,0.9482,0.9526,0.9507,0.951,0.9514,0.953,0.9531,0.9502,0.9472,0.9493,0.9477,0.9445,0.9483,0.9456,0.946,0.9493,0.9531,0.9537,0.9542,0.9605,0.9618,0.9629,0,0,0,0,0,0,0.9548,0.9524,0.9502,0.9542,0.9539,0.9519,0.9544,0.9517,0.9522,0.9516,0.948,0.9478,0.9514,0.9506,0.9477,0.9545,0.9502,0.9508,0.9548,0.9561,0.9571,0.9572,0.9422,0,0,0,0,0,0.9568,0.9583,0.956,0.9598,0.9598,0.9572,0.9577,0.9556,0.9551,0.9549,0.9536,0.9533,0.9544,0.9552,0.9561,0.9608,0.9604,0.9632,0.9642,0.9651,0.9657,0.9681,0.9694,0.9563,0.9563,0.9562,0,0,0.9608,0.9596,0.9608,0.9612,0.9606,0.9623,0.9571,0.959,0.9603,0.9552,0.958,0.9571,0.9565,0.9604,0.9621,0.9599,0.9692,0.9657,0.9664,0.9666,0.9688,0.9701,0.9712,0.9566,0.9566,0.9565,0,0,0.969,0.9682,0.9713,0.9709,0.9702,0.9684,0.9692,0.9676,0.9668,0.9696,0.9658,0.9673,0.9692,0.969,0.9691,0.9773,0.9743,0.9776,0.9829,0.9854,0.9864,0.9873,0.9903,0.9914,0.9782,0.9783,0.9783,0,0.9741,0.9764,0.9733,0.9755,0.9758,0.9713,0.9744,0.9742,0.9738,0.9741,0.9717,0.9741,0.9733,0.9772,0.9792,0.9794,0.9802,0.9778,0.9865,0.9874,0.9882,0.991,0.9921,0.9787,0.9786,0.9786,0.9785,0,0.9828,0.9845,0.9871,0.9868,0.9874,0.9901,0.9873,0.9883,0.9861,0.9846,0.9876,0.9865,0.9871,0.9879,0.9858,0.9914,0.9901,0.9872,0.9828,0.9899,0.9925,0.9935,0.9792,0.9791,0.979,0.9789,0,0,0.9951,0.9931,0.9941,0.9939,0.9928,0.9941,0.9966,0.9971,0.9981,0.998,1.0,1.0018,0.9991,0.9992,0.997,0.9992,1.0058,0.996,0.9959,0.9979,1.012,1.0143,1.0156,1.0038,1.004,1.0042,1.0121,0,1.0029,1.0071,1.0043,1.0089,1.0105,1.0062,1.0084,1.008,1.0067,1.0078,1.0064,1.0077,1.004,1.0041,1.006,1.0046,1.0086,1.004,1.0057,1.0058,1.0061,1.0169,1.0192,1.0268,1.0131,1.0132,1.0133,0,1.0126,1.0129,1.0177,1.0163,1.0169,1.0189,1.0192,1.0203,1.0198,1.0187,1.0189,1.0162,1.0186,1.0143,1.0176,1.0145,1.0151,1.0145,1.0147,1.0148,1.01,1.0173,1.0291,1.0302,1.0149,1.0148,1.0146,0,1.0212,1.0228,1.0259,1.0259,1.0243,1.0258,1.0252,1.0245,1.025,1.0253,1.0256,1.0263,1.0266,1.0271,1.0247,1.0218,1.0283,1.0238,1.0275,1.0276,1.0291,1.029,1.0412,1.0294,1.0294,1.0294,1.0294,0,1.0302,1.0333,1.0297,1.0316,1.0349,1.0318,1.0352,1.0342,1.0335,1.0352,1.0315,1.0332,1.0298,1.0311,1.0292,1.0322,1.0324,1.0316,1.0311,1.0319,1.0321,1.0323,1.0317,1.0297,1.0296,1.0296,1.0295,0,1.0404,1.038,1.0411,1.0394,1.039,1.0416,1.0401,1.0418,1.0403,1.0424,1.0427,1.0403,1.0417,1.0392,1.0403,1.039,1.0433,1.0419,1.0435,1.0431,1.0469,1.0466,1.0597,1.0612,1.0485,1.0486,1.0487,0,1.0463,1.0486,1.0471,1.0479,1.0476,1.049,1.0495,1.0465,1.0472,1.0468,1.0486,1.0496,1.0503,1.0526,1.051,1.0518,1.0504,1.055,1.0505,1.0514,1.0506,1.0505,1.0507,1.0559,1.056,1.0562,1.0563,0,1.0571,1.0559,1.0568,1.0573,1.0581,1.0583,1.0583,1.0592,1.0561,1.0571,1.0584,1.0589,1.06,1.0611,1.0615,1.0609,1.0581,1.0577,1.0586,1.0595,1.0603,1.06,1.046,1.0574,1.0573,1.0572,1.0571,1.0571,1.0653,1.0672,1.0665,1.0676,1.0673,1.0674,1.0689,1.0676,1.0686,1.0692,1.0674,1.0692,1.0686,1.0689,1.0686,1.07,1.068,1.0693,1.0696,1.07,1.0706,1.0601,1.0701,1.07,1.07,1.07,1.0699,0,1.076,1.0753,1.0764,1.0765,1.0775,1.0747,1.0746,1.0756,1.0772,1.0768,1.0776,1.0792,1.0802,1.0787,1.0795,1.0809,1.0796,1.0812,1.0811,1.081,1.0724,1.0715,1.0822,1.0822,1.0822,1.0822,1.0822,1.0822,1.0816,1.0846,1.0833,1.0861,1.0854,1.0871,1.0873,1.0874,1.0872,1.0891,1.0899,1.0889,1.0881,1.0888,1.0897,1.0892,1.0897,1.0918,1.0909,1.0828,1.0816,1.0805,1.0797,1.0919,1.0919,1.0994,1.0995,1.0995]}]]